Total_Precipitation_Accumulation
1.20 1.37 1.86 2.46 2.87 3.33 3.64 3.60 3.42 3.48 3.56 3.59 3.40 3.59 3.81 4.12 4.41 4.32 4.19 4.08 3.98 3.94 3.96 3.99 3.98 3.85 3.76 3.60 3.42 3.32 3.20 2.97 2.76 2.68 2.37 2.02 1.77 1.69 1.65 1.69 1.76 1.75 1.75
1.27 1.53 1.98 2.32 2.74 3.08 3.23 3.51 3.64 3.68 3.48 3.77 4.02 4.25 4.55 4.68 5.02 5.31 5.34 5.16 4.88 4.64 4.43 4.39 4.19 3.90 3.72 3.58 3.39 3.25 3.09 2.82 2.67 2.61 2.59 2.19 1.86 1.56 1.37 1.46 1.46 1.51 1.66
1.54 1.81 2.11 2.27 2.53 2.94 3.20 3.49 3.78 3.89 3.80 4.20 4.69 5.11 5.41 5.41 5.49 5.56 5.58 5.53 5.10 4.70 4.42 4.14 4.00 3.84 3.67 3.50 3.40 3.26 3.14 2.89 2.71 2.59 2.71 2.56 2.23 1.82 1.61 1.46 1.46 1.53 1.59
1.42 1.70 1.98 2.35 2.43 2.74 3.02 3.27 3.62 4.01 4.31 4.72 5.18 5.72 6.01 6.13 6.00 5.70 5.46 5.14 4.74 4.35 3.93 3.70 3.71 3.57 3.36 3.16 2.94 2.81 2.77 2.70 2.58 2.52 2.42 2.39 2.32 2.14 1.91 1.71 1.70 1.71 1.67
1.41 1.55 1.70 2.04 2.29 2.55 2.82 3.10 3.44 3.85 4.49 5.25 5.78 6.17 6.46 6.40 5.96 5.46 4.88 4.43 4.11 3.80 3.51 3.30 3.32 3.22 2.97 2.74 2.48 2.29 2.20 2.20 2.27 2.29 2.27 2.22 2.17 2.00 1.88 1.78 1.71 1.68 1.66
1.53 1.64 1.76 2.05 2.21 2.32 2.57 2.91 3.33 3.63 4.15 4.88 5.52 5.81 5.99 5.92 5.51 4.86 4.32 3.95 3.56 3.20 2.87 2.59 2.49 2.38 2.23 2.11 2.01 1.90 1.85 1.85 1.95 2.01 1.96 1.96 1.98 1.95 1.93 1.86 1.71 1.69 1.76
1.67 1.66 1.69 1.84 2.03 2.14 2.32 2.60 2.91 3.30 3.63 4.02 4.62 4.74 4.79 4.61 4.20 3.92 3.68 3.28 2.88 2.54 2.25 2.04 1.92 1.86 1.81 1.76 1.75 1.72 1.65 1.56 1.60 1.63 1.66 1.67 1.65 1.69 1.83 1.96 1.93 1.83 1.70
1.48 1.50 1.50 1.72 1.94 2.13 2.28 2.39 2.59 2.94 3.24 3.35 3.50 3.47 3.39 3.32 3.14 2.91 2.63 2.36 2.14 1.99 1.88 1.74 1.62 1.58 1.61 1.60 1.63 1.57 1.45 1.36 1.34 1.29 1.33 1.39 1.38 1.51 1.70 1.84 2.00 2.02 1.80
1.35 1.40 1.42 1.53 1.72 1.97 2.09 2.16 2.21 2.35 2.38 2.40 2.44 2.46 2.46 2.32 2.24 2.15 1.93 1.78 1.65 1.55 1.52 1.49 1.45 1.37 1.33 1.28 1.25 1.22 1.21 1.23 1.22 1.17 1.15 1.18 1.20 1.31 1.45 1.60 1.81 2.00 1.91
1.37 1.38 1.41 1.47 1.45 1.51 1.60 1.71 1.82 1.95 1.95 1.88 1.80 1.86 1.85 1.71 1.58 1.47 1.40 1.31 1.24 1.19 1.21 1.17 1.14 1.17 1.18 1.10 1.03 1.01 1.02 1.04 1.09 1.12 1.06 1.05 1.06 1.10 1.16 1.28 1.44 1.66 1.81
1.44 1.36 1.35 1.34 1.25 1.19 1.20 1.31 1.44 1.60 1.68 1.62 1.56 1.58 1.54 1.44 1.32 1.23 1.16 1.11 1.07 1.02 0.99 0.98 0.97 0.95 0.95 0.94 0.96 0.94 0.95 1.01 1.03 1.02 1.01 0.99 1.00 1.03 1.02 1.09 1.21 1.36 1.53
1.43 1.31 1.26 1.30 1.24 1.16 1.10 1.16 1.22 1.20 1.27 1.30 1.35 1.42 1.35 1.29 1.22 1.16 1.11 1.07 0.97 0.91 0.90 0.91 0.88 0.79 0.77 0.83 0.90 0.92 0.90 0.98 0.99 0.97 1.00 0.98 0.97 1.00 1.00 1.04 1.10 1.23 1.41
1.59 1.40 1.26 1.24 1.22 1.15 1.11 1.12 1.15 1.08 1.07 1.04 1.05 1.13 1.14 1.12 1.10 1.01 0.95 0.92 0.89 0.88 0.86 0.81 0.79 0.77 0.73 0.75 0.75 0.77 0.78 0.86 0.93 0.95 1.00 1.00 1.02 1.00 0.98 1.02 1.07 1.19 1.32
1.58 1.39 1.29 1.23 1.15 1.10 1.10 1.08 1.04 0.95 0.92 0.90 0.94 0.99 0.98 1.00 1.05 0.98 0.90 0.87 0.82 0.80 0.78 0.72 0.71 0.77 0.76 0.68 0.63 0.65 0.70 0.77 0.80 0.81 0.92 0.98 1.00 0.99 1.04 1.06 1.10 1.18 1.36
1.54 1.49 1.36 1.24 1.08 0.97 0.97 0.97 0.94 0.89 0.84 0.86 0.91 1.00 0.94 0.91 0.99 1.04 0.93 0.83 0.79 0.76 0.76 0.70 0.66 0.71 0.69 0.62 0.62 0.63 0.63 0.68 0.68 0.70 0.77 0.83 0.84 0.84 0.90 0.93 1.03 1.16 1.32
1.74 1.68 1.54 1.38 1.18 1.04 1.00 0.99 0.95 0.84 0.77 0.81 0.92 0.99 0.99 0.97 1.01 1.05 1.01 0.93 0.87 0.85 0.80 0.74 0.70 0.69 0.64 0.63 0.57 0.56 0.58 0.64 0.70 0.76 0.76 0.71 0.71 0.69 0.66 0.73 0.83 1.00 1.20
1.79 1.68 1.58 1.42 1.26 1.20 1.09 1.06 1.01 0.89 0.86 0.87 0.88 0.95 0.99 1.05 1.07 1.04 1.02 0.99 0.97 0.95 0.85 0.75 0.73 0.70 0.62 0.54 0.45 0.44 0.50 0.64 0.74 0.81 0.79 0.67 0.64 0.73 0.73 0.73 0.76 0.88 1.02
1.96 1.89 1.66 1.49 1.31 1.17 1.07 1.02 0.96 0.89 0.91 0.91 0.87 0.85 0.86 0.89 0.89 0.95 1.01 0.99 0.95 0.89 0.84 0.77 0.71 0.67 0.50 0.44 0.41 0.43 0.46 0.55 0.60 0.64 0.72 0.80 0.82 0.74 0.74 0.73 0.84 0.94 1.05
1.85 1.80 1.65 1.53 1.40 1.24 1.10 1.02 0.98 0.93 0.88 0.85 0.80 0.73 0.69 0.73 0.74 0.81 0.92 0.99 0.94 0.85 0.78 0.71 0.68 0.63 0.51 0.45 0.43 0.43 0.47 0.52 0.50 0.47 0.53 0.58 0.62 0.62 0.69 0.80 0.96 1.01 1.12
1.39 1.37 1.33 1.29 1.22 1.10 1.01 1.00 0.99 0.90 0.82 0.74 0.67 0.62 0.61 0.65 0.67 0.72 0.83 0.89 0.90 0.79 0.66 0.59 0.59 0.56 0.53 0.47 0.40 0.38 0.42 0.49 0.46 0.49 0.57 0.56 0.48 0.51 0.65 0.84 1.03 1.18 1.21
1.17 1.10 1.08 1.11 1.08 0.98 0.96 0.99 0.95 0.87 0.70 0.58 0.57 0.59 0.64 0.67 0.65 0.72 0.80 0.78 0.71 0.71 0.64 0.59 0.57 0.50 0.43 0.37 0.32 0.32 0.36 0.41 0.46 0.52 0.61 0.63 0.54 0.49 0.56 0.75 0.94 1.10 1.14
1.22 1.12 1.06 1.02 0.93 0.89 0.95 0.98 0.91 0.72 0.59 0.56 0.60 0.64 0.64 0.60 0.59 0.70 0.77 0.69 0.67 0.67 0.65 0.63 0.57 0.47 0.37 0.31 0.25 0.23 0.24 0.28 0.46 0.61 0.61 0.59 0.56 0.53 0.59 0.74 0.91 1.03 1.21
1.15 1.10 1.01 0.93 0.81 0.76 0.81 0.85 0.72 0.53 0.49 0.55 0.64 0.65 0.61 0.68 0.67 0.64 0.64 0.62 0.65 0.58 0.53 0.53 0.50 0.46 0.40 0.33 0.25 0.20 0.20 0.25 0.38 0.55 0.59 0.57 0.55 0.63 0.83 0.95 1.04 1.18 1.38
0.96 0.88 0.84 0.78 0.69 0.61 0.58 0.58 0.48 0.45 0.51 0.59 0.62 0.60 0.63 0.73 0.72 0.62 0.51 0.49 0.50 0.47 0.43 0.44 0.43 0.43 0.43 0.33 0.29 0.29 0.28 0.30 0.37 0.49 0.64 0.69 0.72 0.89 1.08 1.21 1.29 1.38 1.43
0.76 0.68 0.67 0.63 0.53 0.48 0.45 0.40 0.36 0.41 0.51 0.54 0.57 0.57 0.59 0.64 0.66 0.56 0.43 0.41 0.36 0.29 0.29 0.30 0.32 0.38 0.37 0.27 0.25 0.28 0.31 0.34 0.37 0.46 0.66 0.82 0.87 0.99 1.13 1.26 1.32 1.37 1.35
0.63 0.60 0.56 0.53 0.46 0.44 0.41 0.37 0.33 0.36 0.48 0.52 0.49 0.45 0.47 0.49 0.49 0.50 0.44 0.30 0.17 0.13 0.13 0.13 0.17 0.21 0.22 0.19 0.18 0.22 0.27 0.32 0.40 0.54 0.82 0.92 0.91 0.96 1.04 1.14 1.24 1.24 1.20